Benson, MN

2:35 AM CDT on June 28, 2017 (GMT -0500)
Benson Municipal

Weather History for KBBB - September, 2013

Change the Weather History Date:

Friday, September 20, 2013

  Actual Average Record
Temperature  
Mean Temperature 51 °F -  
Max Temperature 60 °F 67 °F 87 °F (2005)
Min Temperature 42 °F 47 °F 31 °F (1962)
Degree Days  
Heating Degree Days 14    
Growing Degree Days 1 (Base 50)    
Moisture  
Dew Point 49 °F    
Average Humidity 84    
Maximum Humidity 100    
Minimum Humidity 55    
Precipitation  
Precipitation 0.00 in - - ()
Sea Level Pressure  
Sea Level Pressure 29.93 in    
Wind  
Wind Speed 11 mph (NNW)    
Max Wind Speed 17 mph    
Max Gust Speed 24 mph    
Visibility 9 miles    
Events Rain    
Averages and records for this station are not official NWS values.
T = Trace of Precipitation, MM = Missing Value Source: NWS Daily Summary

Daily Weather History Graph

Daily Weather History Graph

Search for Another Location

Airport or City:

Trip Planner

Search our weather history database for the weather conditions in past years. The results will help you decide how hot, cold, wet, or windy it might be!

Date:

Astronomy

Sep. 20, 2013 Rise Set
Actual Time 7:07 AM CDT 7:23 PM CDT
Civil Twilight 6:37 AM CDT 7:52 PM CDT
Nautical Twilight 6:03 AM CDT 8:27 PM CDT
Astronomical Twilight 5:27 AM CDT 9:03 PM CDT
Moon 7:50 PM CDT (9/20) 8:29 AM CDT (9/20)
Length of Visible Light 13h 14m
Length of Day
12h 15m
Full, 98% of the Moon is Illuminated
Sep 20
Full
Sep 26
Last Quarter
Oct 4
New
Oct 11
First Quarter
Oct 18
Full

Hourly Weather History & Observations

Time (CDT) Temp. Dew Point Humidity Pressure Visibility Wind Dir Wind Speed Gust Speed Precip Events Conditions
12:12 AM 55.4 °F 50.0 °F 82% 29.89 in 10.0 mi NW 8.1 mph - N/A   Clear
12:33 AM 55.4 °F 50.0 °F 82% 29.89 in 10.0 mi NW 8.1 mph - N/A   Scattered Clouds
12:52 AM 55.4 °F 50.0 °F 82% 29.88 in 10.0 mi WNW 9.2 mph - N/A   Overcast
1:12 AM 55.4 °F 51.8 °F 88% 29.88 in 10.0 mi NW 8.1 mph - N/A   Overcast
1:33 AM 55.4 °F 51.8 °F 88% 29.88 in 10.0 mi NW 9.2 mph - N/A   Overcast
1:52 AM 55.4 °F 51.8 °F 88% 29.88 in 10.0 mi NW 9.2 mph - N/A   Overcast
2:13 AM 55.4 °F 51.8 °F 88% 29.88 in 10.0 mi NW 10.4 mph - N/A   Overcast
2:32 AM 55.4 °F 51.8 °F 88% 29.87 in 7.0 mi NW 13.8 mph - N/A   Overcast
2:52 AM 55.4 °F 51.8 °F 88% 29.86 in 10.0 mi NW 10.4 mph - N/A   Overcast
3:13 AM 55.4 °F 53.6 °F 94% 29.85 in 10.0 mi WNW 9.2 mph - N/A   Overcast
3:32 AM 55.4 °F 53.6 °F 94% 29.86 in 5.0 mi WNW 9.2 mph - N/A   Overcast
3:52 AM 55.4 °F 53.6 °F 94% 29.86 in 7.0 mi NW 10.4 mph - N/A   Overcast
4:12 AM 55.4 °F 53.6 °F 94% 29.86 in 2.0 mi NNW 10.4 mph - N/A   Overcast
4:32 AM 55.4 °F 53.6 °F 94% 29.86 in 10.0 mi NNW 10.4 mph 18.4 mph N/A   Overcast
4:53 AM 55.4 °F 53.6 °F 94% 29.86 in 10.0 mi NNW 13.8 mph 18.4 mph N/A   Overcast
5:12 AM 53.6 °F 53.6 °F 100% 29.87 in 4.0 mi NNW 15.0 mph 23.0 mph N/A   Overcast
5:32 AM 53.6 °F 51.8 °F 94% 29.87 in 7.0 mi North 16.1 mph 19.6 mph N/A   Light Drizzle
5:53 AM 53.6 °F 51.8 °F 94% 29.88 in 10.0 mi North 12.7 mph 17.3 mph N/A Rain Rain
6:12 AM 53.6 °F 51.8 °F 94% 29.88 in 7.0 mi North 11.5 mph 18.4 mph N/A   Light Drizzle
6:32 AM 53.6 °F 51.8 °F 94% 29.89 in 7.0 mi NNW 13.8 mph 18.4 mph N/A   Light Drizzle
6:53 AM 53.6 °F 51.8 °F 94% 29.89 in 10.0 mi NNW 12.7 mph 19.6 mph N/A Rain Light Rain
7:12 AM 53.6 °F 51.8 °F 94% 29.91 in 10.0 mi North 16.1 mph 20.7 mph N/A   Overcast
7:32 AM 53.6 °F 51.8 °F 94% 29.92 in 10.0 mi NNW 13.8 mph 18.4 mph N/A   Overcast
7:53 AM 53.6 °F 51.8 °F 94% 29.92 in 10.0 mi NNW 15.0 mph 19.6 mph N/A   Overcast
8:12 AM 53.6 °F 50.0 °F 88% 29.93 in 10.0 mi North 15.0 mph 24.2 mph N/A   Overcast
8:32 AM 53.6 °F 50.0 °F 88% 29.93 in 10.0 mi North 16.1 mph 19.6 mph N/A   Overcast
8:53 AM 53.6 °F 50.0 °F 88% 29.93 in 10.0 mi North 12.7 mph 18.4 mph N/A   Mostly Cloudy
9:12 AM 55.4 °F 50.0 °F 82% 29.93 in 10.0 mi North 17.3 mph 21.9 mph N/A   Mostly Cloudy
9:32 AM 55.4 °F 50.0 °F 82% 29.94 in 10.0 mi North 12.7 mph - N/A   Mostly Cloudy
9:53 AM 55.4 °F 51.8 °F 88% 29.94 in 10.0 mi NNW 15.0 mph 23.0 mph N/A   Mostly Cloudy
10:12 AM 55.4 °F 51.8 °F 88% 29.94 in 10.0 mi North 15.0 mph - N/A   Overcast
10:33 AM 53.6 °F 50.0 °F 88% 29.95 in 10.0 mi NNW 17.3 mph - N/A   Overcast
10:52 AM 55.4 °F 50.0 °F 82% 29.96 in 10.0 mi NNW 15.0 mph 21.9 mph N/A   Overcast
11:12 AM 57.2 °F 51.8 °F 82% 29.96 in 10.0 mi NNW 11.5 mph - N/A   Overcast
11:33 AM 57.2 °F 50.0 °F 77% 29.96 in 10.0 mi NNW 12.7 mph - N/A   Overcast
11:52 AM 57.2 °F 50.0 °F 77% 29.96 in 10.0 mi NNW 12.7 mph - N/A   Overcast
12:13 PM 57.2 °F 50.0 °F 77% 29.96 in 10.0 mi NW 16.1 mph 20.7 mph N/A   Overcast
12:32 PM 55.4 °F 50.0 °F 82% 29.96 in 10.0 mi NNW 16.1 mph 20.7 mph N/A   Overcast
12:52 PM 55.4 °F 48.2 °F 77% 29.96 in 10.0 mi NW 17.3 mph 21.9 mph N/A   Overcast
1:13 PM 53.6 °F 50.0 °F 88% 29.96 in 4.0 mi NNW 15.0 mph 23.0 mph N/A   Overcast
1:32 PM 53.6 °F 50.0 °F 88% 29.96 in 3.0 mi NNW 12.7 mph 21.9 mph N/A   Overcast
1:52 PM 53.6 °F 51.8 °F 94% 29.95 in 10.0 mi NNW 12.7 mph - N/A   Overcast
2:13 PM 55.4 °F 51.8 °F 88% 29.95 in 10.0 mi NNW 11.5 mph - N/A   Light Drizzle
2:32 PM 53.6 °F 48.2 °F 82% 29.94 in 10.0 mi NNW 9.2 mph - N/A Rain Rain
2:52 PM 55.4 °F 48.2 °F 77% 29.94 in 10.0 mi NNW 17.3 mph - N/A   Overcast
3:12 PM 57.2 °F 46.4 °F 67% 29.94 in 10.0 mi NNW 17.3 mph - N/A   Overcast
3:32 PM 59.0 °F 44.6 °F 59% 29.94 in 10.0 mi North 13.8 mph - N/A   Overcast
3:53 PM 59.0 °F 44.6 °F 59% 29.94 in 10.0 mi NNW 15.0 mph 20.7 mph N/A   Overcast
4:12 PM 59.0 °F 44.6 °F 59% 29.94 in 10.0 mi NNW 13.8 mph - N/A   Overcast
4:32 PM 57.2 °F 44.6 °F 63% 29.94 in 10.0 mi NNW 17.3 mph - N/A   Overcast
4:53 PM 57.2 °F 44.6 °F 63% 29.94 in 10.0 mi North 12.7 mph 21.9 mph N/A   Overcast
5:12 PM 60.8 °F 44.6 °F 55% 29.93 in 10.0 mi NNW 16.1 mph - N/A   Mostly Cloudy
5:32 PM 59.0 °F 44.6 °F 59% 29.94 in 10.0 mi North 12.7 mph - N/A   Overcast
5:53 PM 59.0 °F 46.4 °F 63% 29.94 in 10.0 mi NNE 6.9 mph - N/A   Overcast
6:12 PM 60.8 °F 46.4 °F 59% 29.94 in 10.0 mi NNE 6.9 mph - N/A   Overcast
6:32 PM 60.8 °F 44.6 °F 55% 29.94 in 10.0 mi North 13.8 mph - N/A   Overcast
6:53 PM 57.2 °F 44.6 °F 63% 29.94 in 10.0 mi North 8.1 mph - N/A   Mostly Cloudy
7:12 PM 55.4 °F 44.6 °F 67% 29.94 in 10.0 mi North 5.8 mph - N/A   Scattered Clouds
7:33 PM 51.8 °F 46.4 °F 82% 29.95 in 10.0 mi NNW 3.5 mph - N/A   Mostly Cloudy
7:52 PM 51.8 °F 46.4 °F 82% 29.95 in 10.0 mi NNW 4.6 mph - N/A   Scattered Clouds
8:12 PM 48.2 °F 44.6 °F 87% 29.96 in 10.0 mi NNW 3.5 mph - N/A   Clear
8:33 PM 48.2 °F 44.6 °F 87% 29.96 in 10.0 mi NE 4.6 mph - N/A   Clear
8:52 PM 48.2 °F 44.6 °F 87% 29.96 in 10.0 mi North 4.6 mph - N/A   Clear
9:12 PM 48.2 °F 44.6 °F 87% 29.96 in 10.0 mi Calm Calm - N/A   Clear
9:33 PM 46.4 °F 44.6 °F 93% 29.97 in 10.0 mi Calm Calm - N/A   Clear
9:52 PM 44.6 °F 42.8 °F 93% 29.97 in 10.0 mi Calm Calm - N/A   Clear
10:13 PM 42.8 °F 42.8 °F 100% 29.97 in 10.0 mi Calm Calm - N/A   Clear
10:33 PM 42.8 °F 42.8 °F 100% 29.97 in 10.0 mi Calm Calm - N/A   Clear
10:52 PM 42.8 °F 41.0 °F 93% 29.97 in 10.0 mi Calm Calm - N/A   Clear
11:13 PM 42.8 °F 42.8 °F 100% 29.97 in 10.0 mi Calm Calm - N/A   Clear
11:33 PM 42.8 °F 41.0 °F 93% 29.97 in 10.0 mi Calm Calm - N/A   Clear
11:52 PM 42.8 °F 41.0 °F 93% 29.97 in 10.0 mi Calm Calm - N/A   Clear